TUPJTNCM

Guest
Details From TUPJ - Tortola - Terrance B Lettsome Intl
To TNCM - St Maarten - Princess Juliana Intl
Flight Number -
Tags generated
Created
Modified
Stats Distance 85 nm / 158 km
Max Altitude 100 ft / 30 m
Waypoints 3
Social Downloads 2
Likes 0
Share VATSIM

Download

Looking for another format? Having issues loading an existing format? Contact us
Advertisement - Login to hide

Notes

Basic altitude profile: - Ascent Rate: 2500ft/min - Ascent Speed: 250kts - Cruise Altitude: 35000ft - Cruise Speed: 420kts - Descent Rate: 1500ft/min - Descent Speed: 250kts Options: - Use NATs: no - Use PACOTS: no - Use low airways: yes - Use high airways: no

Route

TUPJ PJM TNCM

ID Type Via Altitude Latitude Longitude Leg Dist Tot Dist Heading (true) Name
O TUPJ APT - 0 ft / 0 m 18.44552˚ -64.54159˚ - 0 nm - Tortola - Terrance B Lettsome Intl
PJM VOR - 100 ft / 30 m 18.03811˚ -63.11828˚ 84 nm 84 nm 107° / 107° ST MAARTEN VOR-DME
O TNCM APT - 0 ft / 0 m 18.04089˚ -63.10897˚ 0 nm 85 nm 73° / 73° St Maarten - Princess Juliana Intl

Altitude Profile

Advertisement - Login to hide

TUPJ

Details ICAO TUPJ (EIS)
Name Tortola - Terrance B Lettsome Intl
Region UK (British Virgin Islands)
Timezone America/Tortola (UTC-4.0)
Stats Elevation 15 ft / 5 m (AMSL)
Location 18.445519° -64.541589°
Runways 1
Magnetic Variation 13.824° W

METAR

TUPJ 211500Z 11009KT 080V160 10SM SCT018 30/20 A3005 RMK Q1017

Decode

TAF

Not found

Departure Runways

ID Width Length Bearing (true) Bearing (mag) Surface Threshold Offset Overrun Length
07 89 ft / 27 m 4,644 ft / 1,415 m 60.46° 74.28° Asphalt 489 ft / 149 m 0 ft / 0 m
25 89 ft / 27 m 4,644 ft / 1,415 m 240.47° 254.29° Asphalt 194 ft / 59 m 0 ft / 0 m

TNCM

Details ICAO TNCM (SXM)
Name St Maarten - Princess Juliana Intl
Region Caribbean Netherlands, Aruba, Curaçao, Sint Maarten
Timezone Unknown (UTC+0.0)
Stats Elevation 12 ft / 4 m (AMSL)
Location 18.040889° -63.108974°
Runways 1
Magnetic Variation 14.337° W

METAR

TNCM 211500Z 08011KT 040V130 9999 SCT018 30/21 Q1017 A3003 NOSIG

Decode

TAF

TAF TNCM 211131Z 2112/2212 08010KT P6SM VCSH FEW018 FM211600 10015KT P6SM VCSH SCT020 FM212300 09010KT P6SM VCSH SCT018 SCT040

Decode

Destination Runways

ID Width Length Bearing (true) Bearing (mag) Surface Threshold Offset Overrun Length
10 148 ft / 45 m 7,464 ft / 2,275 m 81.43° 95.77° Asphalt 0 ft / 0 m 151 ft / 46 m
28 148 ft / 45 m 7,464 ft / 2,275 m 261.44° 275.78° Asphalt 397 ft / 121 m 0 ft / 0 m

Popular Alternatives